BLUE21 LIEE-LICR

Flight info

Callsign BLUE21
Flight time 0h 56m
Altitude 19000
Route CAR Q152 TADIX DCT VACCE Q58 FOSQA
Aircraft A320/M-SDE3FGHIRWY/LB1

Departure

Time 2026-05-05 19:43
Airport Cagliari Elmas Airport (LIEE)

Arrival

Time 2026-05-05 20:39
Airport Reggio Calabria Airport (LICR)
Time Latitude Longitude Altitude Speed Heading
2026-05-05 19:09 39.25347 9.05832 20 ft 0 kts 146°
2026-05-05 19:32 39.25348 9.05832 8 ft 2 kts 146°
2026-05-05 19:32 39.25364 9.05818 20 ft 4 kts 143°
2026-05-05 19:33 39.25385 9.05799 19 ft 4 kts 162°
2026-05-05 19:33 39.25408 9.05799 19 ft 4 kts 217°
2026-05-05 19:33 39.25415 9.05806 19 ft 0 kts 231°
2026-05-05 19:35 39.25385 9.05758 19 ft 8 kts 231°
2026-05-05 19:35 39.25351 9.05686 19 ft 11 kts 262°
2026-05-05 19:36 39.25389 9.05576 20 ft 15 kts 295°
2026-05-05 19:36 39.25409 9.05436 22 ft 17 kts 285°
2026-05-05 19:36 39.25475 9.05295 21 ft 20 kts 302°
2026-05-05 19:36 39.25566 9.05209 20 ft 14 kts 320°
2026-05-05 19:37 39.25647 9.05121 20 ft 16 kts 319°
2026-05-05 19:37 39.25739 9.05017 20 ft 19 kts 319°
2026-05-05 19:37 39.25844 9.04899 20 ft 21 kts 319°
2026-05-05 19:37 39.25963 9.04763 20 ft 24 kts 318°
2026-05-05 19:38 39.26084 9.04623 19 ft 18 kts 318°
2026-05-05 19:38 39.26130 9.04477 19 ft 19 kts 271°
2026-05-05 19:38 39.26055 9.04394 21 ft 13 kts 146°
2026-05-05 19:38 39.26027 9.04416 18 ft 0 kts 149°
2026-05-05 19:42 39.26002 9.04437 19 ft 18 kts 145°
2026-05-05 19:42 39.25719 9.04768 20 ft 90 kts 138°
2026-05-05 19:42 39.25094 9.05478 25 ft 145 kts 140°
2026-05-05 19:43 39.24310 9.06363 654 ft 147 kts 141°
2026-05-05 19:43 39.23558 9.07176 1529 ft 138 kts 141°
2026-05-05 19:43 39.22843 9.08054 2008 ft 149 kts 135°
2026-05-05 19:43 39.22085 9.09023 2498 ft 158 kts 141°
2026-05-05 19:44 39.21210 9.09885 3068 ft 162 kts 144°
2026-05-05 19:44 39.20298 9.10870 3477 ft 181 kts 140°
2026-05-05 19:44 39.19301 9.12045 3798 ft 207 kts 139°
2026-05-05 19:44 39.18184 9.13376 4315 ft 227 kts 140°
2026-05-05 19:45 39.16981 9.14800 4927 ft 246 kts 140°
2026-05-05 19:45 39.15655 9.16357 5498 ft 267 kts 140°
2026-05-05 19:45 39.14260 9.17985 6378 ft 274 kts 141°
2026-05-05 19:45 39.12833 9.19642 7279 ft 279 kts 141°
2026-05-05 19:46 39.11378 9.21329 8179 ft 284 kts 141°
2026-05-05 19:46 39.09898 9.23048 9081 ft 289 kts 140°
2026-05-05 19:46 39.08666 9.25148 9755 ft 303 kts 118°
2026-05-05 19:46 39.08192 9.27797 9944 ft 309 kts 90°
2026-05-05 19:47 39.08489 9.30610 9994 ft 337 kts 81°
2026-05-05 19:47 39.08905 9.33678 9996 ft 348 kts 81°
2026-05-05 19:47 39.09316 9.36721 9996 ft 351 kts 81°
2026-05-05 19:47 39.09728 9.39817 9995 ft 351 kts 81°
2026-05-05 19:48 39.10135 9.42956 10466 ft 357 kts 82°
2026-05-05 19:48 39.10540 9.46122 11332 ft 359 kts 82°
2026-05-05 19:48 39.10936 9.49320 12091 ft 363 kts 84°
2026-05-05 19:48 39.11010 9.52581 12821 ft 367 kts 96°
2026-05-05 19:49 39.10773 9.55874 13557 ft 372 kts 97°
2026-05-05 19:49 39.10615 9.58076 14006 ft 375 kts 97°
2026-05-05 19:49 39.10296 9.62580 14882 ft 380 kts 97°
2026-05-05 19:49 39.10056 9.65988 15545 ft 384 kts 97°
2026-05-05 19:50 39.09815 9.69426 16222 ft 387 kts 97°
2026-05-05 19:50 39.09571 9.72890 16888 ft 390 kts 97°
2026-05-05 19:50 39.09321 9.76382 17558 ft 393 kts 97°
2026-05-05 19:50 39.09066 9.79911 18226 ft 397 kts 97°
2026-05-05 19:51 39.08806 9.83459 18749 ft 401 kts 97°
2026-05-05 19:51 39.08545 9.87040 18941 ft 402 kts 97°
2026-05-05 19:51 39.08282 9.90646 18997 ft 407 kts 97°
2026-05-05 19:51 39.08016 9.94280 19002 ft 409 kts 97°
2026-05-05 19:52 39.07748 9.97933 19002 ft 410 kts 97°
2026-05-05 19:52 39.07480 10.01579 19005 ft 410 kts 97°
2026-05-05 19:52 39.07210 10.05239 19005 ft 410 kts 97°
2026-05-05 19:52 39.06943 10.08854 19007 ft 410 kts 97°
2026-05-05 19:53 39.06668 10.12508 19008 ft 410 kts 97°
2026-05-05 19:53 39.06393 10.16161 19010 ft 410 kts 97°
2026-05-05 19:53 39.06115 10.19813 19011 ft 410 kts 97°
2026-05-05 19:53 39.05836 10.23462 19005 ft 410 kts 97°
2026-05-05 19:54 39.05557 10.27116 19006 ft 410 kts 97°
2026-05-05 19:54 39.05278 10.30773 19013 ft 410 kts 97°
2026-05-05 19:54 39.04998 10.34425 19014 ft 410 kts 97°
2026-05-05 19:54 39.04716 10.38075 19015 ft 410 kts 97°
2026-05-05 19:55 39.04435 10.41725 19015 ft 410 kts 97°
2026-05-05 19:55 39.04152 10.45375 19016 ft 410 kts 97°
2026-05-05 19:55 39.03864 10.49030 19017 ft 410 kts 97°
2026-05-05 19:55 39.03578 10.52632 19018 ft 410 kts 97°
2026-05-05 19:56 39.03286 10.56290 19019 ft 411 kts 97°
2026-05-05 19:56 39.02996 10.59937 19013 ft 410 kts 97°
2026-05-05 19:56 39.02706 10.63599 19016 ft 412 kts 97°
2026-05-05 19:56 39.02414 10.67266 18993 ft 413 kts 94°
2026-05-05 19:57 39.02143 10.71027 17697 ft 428 kts 96°
2026-05-05 19:57 39.01953 10.73562 17698 ft 414 kts 97°
2026-05-05 19:57 39.01562 10.78359 17695 ft 404 kts 97°
2026-05-05 19:57 39.01256 10.81942 17695 ft 403 kts 97°
2026-05-05 19:58 39.00948 10.85525 17695 ft 403 kts 97°
2026-05-05 19:58 39.00644 10.89103 17695 ft 403 kts 97°
2026-05-05 19:58 39.00407 10.92691 17593 ft 403 kts 93°
2026-05-05 19:58 39.00574 10.96281 17483 ft 403 kts 79°
2026-05-05 19:59 39.01362 10.99754 15852 ft 419 kts 65°
2026-05-05 19:59 39.02707 11.03242 15016 ft 429 kts 66°
2026-05-05 19:59 39.03369 11.06853 15014 ft 405 kts 90°
2026-05-05 19:59 39.02903 11.10295 14969 ft 386 kts 114°
2026-05-05 20:00 39.01810 11.13455 14893 ft 388 kts 117°
2026-05-05 20:00 39.00679 11.16616 15640 ft 389 kts 117°
2026-05-05 20:00 38.99546 11.19778 16374 ft 391 kts 117°
2026-05-05 20:00 38.98406 11.22957 17038 ft 394 kts 116°
2026-05-05 20:01 38.97567 11.26290 17653 ft 402 kts 100°
2026-05-05 20:01 38.97378 11.29894 18289 ft 406 kts 94°
2026-05-05 20:01 38.97150 11.33532 18796 ft 411 kts 97°
2026-05-05 20:01 38.96819 11.37192 18978 ft 413 kts 98°
2026-05-05 20:02 38.96440 11.40856 19023 ft 414 kts 99°
2026-05-05 20:02 38.96055 11.44522 19018 ft 414 kts 99°
2026-05-05 20:02 38.95689 11.48194 19024 ft 414 kts 98°
2026-05-05 20:02 38.95347 11.51872 19020 ft 414 kts 98°
2026-05-05 20:03 38.95022 11.55547 19021 ft 414 kts 98°
2026-05-05 20:03 38.94704 11.59230 19021 ft 414 kts 97°
2026-05-05 20:03 38.94389 11.62908 19024 ft 414 kts 97°
2026-05-05 20:03 38.94076 11.66588 19024 ft 414 kts 97°
2026-05-05 20:04 38.93758 11.70268 19014 ft 415 kts 98°
2026-05-05 20:04 38.93433 11.73948 19012 ft 415 kts 98°
2026-05-05 20:04 38.93105 11.77638 19016 ft 416 kts 98°
2026-05-05 20:04 38.92778 11.81290 19017 ft 416 kts 98°
2026-05-05 20:05 38.92446 11.84992 19022 ft 417 kts 98°
2026-05-05 20:05 38.92112 11.88692 19025 ft 417 kts 98°
2026-05-05 20:05 38.91777 11.92387 19031 ft 417 kts 98°
2026-05-05 20:05 38.91440 11.96100 19036 ft 417 kts 98°
2026-05-05 20:06 38.91101 11.99801 19038 ft 417 kts 98°
2026-05-05 20:06 38.90761 12.03499 19042 ft 417 kts 98°
2026-05-05 20:06 38.90426 12.07148 19050 ft 417 kts 98°
2026-05-05 20:06 38.90087 12.10847 19059 ft 416 kts 98°
2026-05-05 20:07 38.89751 12.14532 19063 ft 415 kts 98°
2026-05-05 20:07 38.89412 12.18216 19063 ft 415 kts 98°
2026-05-05 20:07 38.89073 12.21892 19067 ft 415 kts 98°
2026-05-05 20:07 38.88755 12.25332 19066 ft 414 kts 98°
2026-05-05 20:08 38.88410 12.28997 19066 ft 414 kts 98°
2026-05-05 20:08 38.88061 12.32674 19064 ft 414 kts 98°
2026-05-05 20:08 38.87714 12.36335 19060 ft 414 kts 98°
2026-05-05 20:08 38.87366 12.40000 19059 ft 414 kts 98°
2026-05-05 20:09 38.87022 12.43662 19059 ft 412 kts 98°
2026-05-05 20:09 38.86686 12.47310 19059 ft 411 kts 98°
2026-05-05 20:09 38.86351 12.50948 19060 ft 411 kts 98°
2026-05-05 20:09 38.86016 12.54585 19058 ft 411 kts 98°
2026-05-05 20:10 38.85680 12.58230 19061 ft 411 kts 98°
2026-05-05 20:10 38.85344 12.61870 19060 ft 411 kts 98°
2026-05-05 20:10 38.85009 12.65504 19058 ft 411 kts 98°
2026-05-05 20:10 38.84673 12.69143 19057 ft 411 kts 98°
2026-05-05 20:11 38.84337 12.72784 19057 ft 411 kts 98°
2026-05-05 20:11 38.84001 12.76426 19056 ft 411 kts 98°
2026-05-05 20:11 38.83665 12.80066 19051 ft 410 kts 98°
2026-05-05 20:11 38.83332 12.83696 19052 ft 410 kts 98°
2026-05-05 20:12 38.82998 12.87326 19052 ft 410 kts 98°
2026-05-05 20:12 38.82664 12.90958 19052 ft 410 kts 98°
2026-05-05 20:12 38.82330 12.94590 19049 ft 410 kts 98°
2026-05-05 20:12 38.81995 12.98216 19049 ft 410 kts 98°
2026-05-05 20:13 38.81664 13.01804 19048 ft 410 kts 98°
2026-05-05 20:13 38.81329 13.05432 19049 ft 410 kts 98°
2026-05-05 20:13 38.80994 13.09061 19056 ft 410 kts 98°
2026-05-05 20:13 38.80658 13.12690 19058 ft 410 kts 98°
2026-05-05 20:14 38.80320 13.16322 19051 ft 411 kts 98°
2026-05-05 20:14 38.79976 13.19967 19051 ft 412 kts 98°
2026-05-05 20:14 38.79913 13.23639 19050 ft 414 kts 83°
2026-05-05 20:14 38.80467 13.27266 19050 ft 414 kts 77°
2026-05-05 20:15 38.81087 13.30871 19051 ft 414 kts 77°
2026-05-05 20:15 38.81711 13.34477 19064 ft 414 kts 77°
2026-05-05 20:15 38.82333 13.38075 19070 ft 413 kts 77°
2026-05-05 20:15 38.82954 13.41670 19068 ft 413 kts 77°
2026-05-05 20:16 38.83572 13.45271 19067 ft 413 kts 77°
2026-05-05 20:16 38.84189 13.48871 19068 ft 413 kts 77°
2026-05-05 20:16 38.84783 13.52482 19061 ft 414 kts 81°
2026-05-05 20:16 38.85010 13.56160 19062 ft 414 kts 91°
2026-05-05 20:17 38.84958 13.58602 19062 ft 414 kts 92°
2026-05-05 20:17 38.84873 13.62296 19062 ft 414 kts 92°
2026-05-05 20:17 38.84763 13.67203 19063 ft 414 kts 92°
2026-05-05 20:17 38.84682 13.70903 19068 ft 414 kts 92°
2026-05-05 20:18 38.84628 13.73370 19068 ft 414 kts 92°
2026-05-05 20:18 38.84548 13.77084 19065 ft 414 kts 92°
2026-05-05 20:18 38.84467 13.80783 19058 ft 414 kts 92°
2026-05-05 20:18 38.84383 13.84448 19055 ft 414 kts 92°
2026-05-05 20:19 38.84292 13.88157 19055 ft 415 kts 92°
2026-05-05 20:19 38.84199 13.91845 19057 ft 417 kts 92°
2026-05-05 20:19 38.84107 13.95573 19063 ft 417 kts 92°
2026-05-05 20:19 38.84016 13.99261 19060 ft 417 kts 92°
2026-05-05 20:20 38.83926 14.03003 19059 ft 418 kts 92°
2026-05-05 20:20 38.83833 14.06732 19060 ft 418 kts 92°
2026-05-05 20:20 38.83739 14.10429 19064 ft 418 kts 92°
2026-05-05 20:20 38.83642 14.14174 19064 ft 418 kts 92°
2026-05-05 20:21 38.83545 14.17908 19068 ft 418 kts 92°
2026-05-05 20:21 38.83445 14.21593 18955 ft 409 kts 92°
2026-05-05 20:21 38.83344 14.25138 18939 ft 393 kts 92°
2026-05-05 20:21 38.83244 14.28613 18941 ft 389 kts 92°
2026-05-05 20:22 38.83142 14.32093 18941 ft 388 kts 92°
2026-05-05 20:22 38.83015 14.35560 18938 ft 387 kts 96°
2026-05-05 20:22 38.82550 14.38928 18981 ft 386 kts 104°
2026-05-05 20:22 38.81963 14.42307 19058 ft 387 kts 103°
2026-05-05 20:23 38.81379 14.45684 19067 ft 388 kts 103°
2026-05-05 20:23 38.80797 14.49058 19068 ft 387 kts 103°
2026-05-05 20:23 38.80222 14.52388 19071 ft 387 kts 103°
2026-05-05 20:23 38.79638 14.55757 19070 ft 387 kts 103°
2026-05-05 20:24 38.79053 14.59130 19070 ft 387 kts 103°
2026-05-05 20:24 38.78468 14.62512 19071 ft 387 kts 103°
2026-05-05 20:24 38.77884 14.65882 19071 ft 387 kts 103°
2026-05-05 20:24 38.77298 14.69246 19068 ft 387 kts 103°
2026-05-05 20:25 38.76709 14.72618 19068 ft 387 kts 104°
2026-05-05 20:25 38.76120 14.75983 19068 ft 387 kts 104°
2026-05-05 20:25 38.75529 14.79350 19045 ft 388 kts 104°
2026-05-05 20:25 38.74933 14.82745 18289 ft 396 kts 104°
2026-05-05 20:26 38.74327 14.86184 17735 ft 394 kts 104°
2026-05-05 20:26 38.73726 14.89592 17242 ft 390 kts 104°
2026-05-05 20:26 38.73131 14.92958 16764 ft 386 kts 104°
2026-05-05 20:26 38.72539 14.96292 16277 ft 382 kts 104°
2026-05-05 20:27 38.71951 14.99592 15799 ft 378 kts 104°
2026-05-05 20:27 38.71370 15.02860 15324 ft 375 kts 104°
2026-05-05 20:27 38.70682 15.06058 14848 ft 371 kts 113°
2026-05-05 20:27 38.69510 15.08970 14373 ft 366 kts 127°
2026-05-05 20:28 38.67909 15.11407 13913 ft 359 kts 140°
2026-05-05 20:28 38.66019 15.13470 13415 ft 355 kts 143°
2026-05-05 20:28 38.64110 15.15511 12942 ft 352 kts 143°
2026-05-05 20:28 38.62244 15.17512 12498 ft 348 kts 143°
2026-05-05 20:29 38.60393 15.19501 12054 ft 346 kts 143°
2026-05-05 20:29 38.58559 15.21472 11593 ft 343 kts 143°
2026-05-05 20:29 38.56734 15.23433 11071 ft 343 kts 143°
2026-05-05 20:29 38.54932 15.25366 10623 ft 341 kts 142°
2026-05-05 20:30 38.53124 15.27305 10198 ft 339 kts 142°
2026-05-05 20:30 38.51349 15.29210 10063 ft 326 kts 142°
2026-05-05 20:30 38.49643 15.31042 9939 ft 315 kts 142°
2026-05-05 20:30 38.47989 15.32811 9770 ft 306 kts 142°
2026-05-05 20:31 38.46366 15.34542 9479 ft 302 kts 142°
2026-05-05 20:31 38.44753 15.36262 9088 ft 302 kts 142°
2026-05-05 20:31 38.43142 15.37981 8707 ft 301 kts 142°
2026-05-05 20:31 38.41535 15.39696 8327 ft 301 kts 142°
2026-05-05 20:32 38.39922 15.41417 7839 ft 302 kts 141°
2026-05-05 20:32 38.38327 15.43118 7340 ft 294 kts 141°
2026-05-05 20:32 38.36779 15.44768 6866 ft 287 kts 141°
2026-05-05 20:32 38.35265 15.46377 6387 ft 280 kts 141°
2026-05-05 20:33 38.33783 15.47946 5890 ft 275 kts 141°
2026-05-05 20:33 38.32324 15.49492 5387 ft 270 kts 141°
2026-05-05 20:33 38.30893 15.51010 4893 ft 265 kts 141°
2026-05-05 20:33 38.29498 15.52495 4515 ft 256 kts 141°
2026-05-05 20:34 38.28113 15.53843 4164 ft 246 kts 152°
2026-05-05 20:34 38.26537 15.54523 3823 ft 235 kts 173°
2026-05-05 20:34 38.24958 15.54701 3489 ft 226 kts 175°
2026-05-05 20:34 38.23418 15.54875 3216 ft 215 kts 172°
2026-05-05 20:35 38.22072 15.55404 3209 ft 190 kts 153°
2026-05-05 20:35 38.20982 15.56121 3150 ft 167 kts 153°
2026-05-05 20:35 38.19980 15.56775 2918 ft 157 kts 153°
2026-05-05 20:35 38.19019 15.57401 2711 ft 153 kts 153°
2026-05-05 20:36 38.18077 15.58015 2493 ft 151 kts 153°
2026-05-05 20:36 38.17160 15.58611 2304 ft 142 kts 153°
2026-05-05 20:36 38.16298 15.59171 2087 ft 136 kts 152°
2026-05-05 20:36 38.15435 15.59731 1890 ft 145 kts 153°
2026-05-05 20:37 38.14516 15.60327 1663 ft 149 kts 152°
2026-05-05 20:37 38.13599 15.60923 1443 ft 150 kts 152°
2026-05-05 20:37 38.12673 15.61524 1222 ft 150 kts 153°
2026-05-05 20:37 38.11746 15.62124 975 ft 149 kts 154°
2026-05-05 20:38 38.10824 15.62721 761 ft 147 kts 155°
2026-05-05 20:38 38.09923 15.63304 576 ft 144 kts 155°
2026-05-05 20:38 38.09043 15.63886 309 ft 139 kts 155°
2026-05-05 20:38 38.08189 15.64444 154 ft 139 kts 154°
2026-05-05 20:39 38.07393 15.64953 58 ft 110 kts 152°
2026-05-05 20:39 38.06924 15.65265 59 ft 33 kts 152°
2026-05-05 20:39 38.06853 15.65365 62 ft 10 kts 70°
2026-05-05 20:39 38.06912 15.65375 58 ft 10 kts 283°
2026-05-05 20:40 38.06942 15.65288 59 ft 13 kts 320°
2026-05-05 20:40 38.07032 15.65215 59 ft 17 kts 328°
2026-05-05 20:40 38.07142 15.65127 59 ft 20 kts 332°
2026-05-05 20:40 38.07278 15.65101 59 ft 20 kts 38°
2026-05-05 20:41 38.07326 15.65193 57 ft 0 kts 63°
2026-05-05 20:41 38.07334 15.65211 58 ft 4 kts 60°
2026-05-05 20:41 38.07385 15.65217 55 ft 12 kts 347°
2026-05-05 20:41 38.07413 15.65243 56 ft 5 kts 56°
2026-05-05 20:42 38.07416 15.65261 60 ft 2 kts 72°
2026-05-05 20:42 38.07417 15.65268 62 ft 0 kts 82°